Location: Frydek-Mistek
(49.6830°N, 18.3330°E)
Time: 05:54:04
(UTC+02:00)

ISS - Pass Details

Date: 22 May 2021
Orbit: 417 x 422 km, 51.6° (Epoch: 13 June)

Event Time Altitude Azimuth Distance (km) Brightness Sun altitude
Rises 22:57:57 0° 285° (WNW) 2,367 0.7 -16.0°
Reaches altitude 10° 23:00:03 10° 287° (WNW) 1,503 -0.4 -16.1°
Maximum altitude 23:03:26 77° 14° (NNE) 436 -3.7 -16.3°
Enters shadow 23:05:17 25° 97° (E) 901 -2.4 -16.5°
